Simultaneous Nadir Overpasses (SNOs) Predictions

Prediction of SNOs between METOP-C and LANDSAT-8 Satellite Orbit:

Table of predicted SNOs for the next 14.0 days since TLE Epoch: 11/20/2021
Index Date (METOP-C) Time (METOP-C) Lat,Lon (METOP-C) SZA (METOP-C ) Date (LANDSAT-8) Time (LANDSAT-8) Lat,Lon (LANDSAT-8) SZA (LANDSAT-8 ) Distance(km) Time Diff (sec)
1 11/20/2021 16:28:53 81.07, -28.29 103.13 11/20/2021 16:29:28 81.08, -28.11 103.16 3.15 35
2 11/20/2021 17:19:32 -81.10, 139.84 76.77 11/20/2021 17:18:54 -81.10, 139.84 76.79 0.44 38
3 11/23/2021 12:03:16 81.08, 38.20 103.72 11/23/2021 12:03:44 81.07, 38.27 103.73 1.30 28
4 11/23/2021 12:53:55 -81.10,-153.71 76.18 11/23/2021 12:53:10 -81.10,-153.76 76.21 1.11 45
5 11/26/2021 07:37:37 81.09, 105.03 104.30 11/26/2021 07:37:58 81.09, 104.98 104.30 0.92 21
6 11/26/2021 08:28:16 -81.12, -86.92 75.61 11/26/2021 08:27:24 -81.12, -87.02 75.64 1.88 52
7 11/29/2021 03:12:00 81.09, 171.46 104.78 11/29/2021 03:12:14 81.08, 171.28 104.76 3.21 14
8 11/29/2021 04:02:39 -81.12, -20.52 75.14 11/29/2021 04:01:40 -81.11, -20.69 75.19 3.02 59
9 12/01/2021 22:46:23 81.09,-122.14 105.19 12/01/2021 22:46:29 81.10,-122.08 105.20 1.02 6



Historial Predications of SNOs between METOP-C and LANDSAT-8
